Regional Weather Roundup
Issued by NWS Wakefield, VA

Home | Current Version | Previous Version | Text Only | Print | Product List | Glossary Off
Versions: 1 2 3 4 5 6 7 8 9 10 11 12 13 14 15 16 17 18 19 20 21 22 23 24 25 26 27

000
ASUS41 KAKQ 232014
RWRAKQ

REGIONAL WEATHER ROUNDUP
NATIONAL WEATHER SERVICE WAKEFIELD VA
400 PM EDT THU MAR 23 2017

Note: "fair" indicates few or no clouds below 12,000 feet with no
significant weather and/or obstructions to visibility. * = Denotes
station may not report precipitation (e.g., rain,snow,etc.),
thunder or fog.

VAZ042-051-052>054-056-232100-
NORTHERN VIRGINIA

CITY           SKY/WX    TMP DP  RH WIND       PRES   REMARKS
WASH NATIONAL  MOSUNNY   47  10  22 S13       30.57F
DULLES         MOSUNNY   47   6  18 SE6       30.54F
FORT BELVOIR   SUNNY     46   6  19 VRB7      30.56F
QUANTICO       MOSUNNY   45  17  32 S6        30.57F
FREDERICKSBRG* SUNNY     49  14  24 E6        30.55F
STAFFORD*      SUNNY     47   8  20 SW3       30.59F
WARRENTON      SUNNY     51  -1  12 S5        30.54F
CULPEPER*      SUNNY     48   9  20 SW5       30.55F
MANASSAS*      SUNNY     48   7  18 VRB3      30.55F
LEESBURG*      SUNNY     50  14  23 W8        30.54F
WINCHESTER     SUNNY     45  10  24 CALM      30.50F
FRONT ROYAL*   CLEAR     48  14  25 E6        30.49F
LURAY*         CLEAR     50  19  29 NW3       30.49F
$$

VAZ048-049-060>072-079>083-232100-
CENTRAL AND SOUTH CENTRAL VIRGINIA

CITY           SKY/WX    TMP DP  RH WIND       PRES   REMARKS
RICHMOND       MOSUNNY   49  12  22 VRB5      30.56F
CHESTERFIELD*  FAIR      50  10  20 S7        30.57F
PETERSBURG*    SUNNY     48   8  19 SE7       30.57F
HANOVER        SUNNY     49  13  23 VRB5      30.57F
TAPPAHANNOCK*  SUNNY     48 -10   9 E5        30.57F
QUINTON*       FAIR      47   9  21 CALM      30.56F
CHARLOTTSVILLE SUNNY     49   9  19 S6        30.52F
GORDONSVILLE*  CLEAR     49  11  21 SW3       30.52F
ORANGE*        SUNNY     46  10  23 NW3       30.54F
LOUISA*        SUNNY     54  14  20 E5        30.52F
BUMPASS*       FAIR      49   9  20 S5        30.54F
FARMVILLE*     SUNNY     52  15  23 CALM      30.53F
CREWE*         FAIR      50  17  26 E3        30.54F
FORT PICKETT*  FAIR      50  -4  10 W3        30.55F
CHASE CITY*    FAIR      50  11  21 SE5       30.54F
CLARKSVILLE*   FAIR      50  14  23 CALM      30.55F
SOUTH HILL*    SUNNY     49  16  26 SW3       30.60F
LAWRENCEVILLE* FAIR      50  10  19 CALM      30.55F
EMPORIA*       SUNNY     48  16  27 E5        30.58F
$$

VAZ088>098-232100-
SOUTHEAST VIRGINIA

CITY           SKY/WX    TMP DP  RH WIND       PRES   REMARKS
NORFOLK        SUNNY     41  22  46 N6        30.60F
VIRGINIA BEACH SUNNY     40  18  41 E7        30.60F
NORFOLK NAVAL  SUNNY     44  17  33 NE7       30.62F
WEST POINT*    SUNNY     47   9  20 SE6       30.60F
SALUDA*        FAIR      39  19  44 E8        30.60F
NEWPORT NEWS   SUNNY     43  11  27 E9        30.60F
LANGLEY AFB    SUNNY     41  14  32 CALM      30.60F
FORT EUSTIS    SUNNY     46  16  29 S7        30.57F
WILLIAMSBURG*  SUNNY     48  19  32 S5        30.59F
HR EXEC AP*    FAIR      45  12  26 NE6       30.59F
FRANKLIN*      SUNNY     47  14  27 E3        30.59F
US460-WAKEFLD  SUNNY     49  16  26 CALM      30.57F
$$

VAZ020-022-025-037-045-232100-
WEST CENTRAL AND SOUTHWEST VIRGINIA

CITY           SKY/WX    TMP DP  RH WIND       PRES   REMARKS
STAUNTON*      SUNNY     48  14  25 S7        30.50F
WAYNESBORO*    CLEAR     48  15  26 SE6       30.48F
HOT SPRINGS VA SUNNY     41   3  20 S7        30.42R
LYNCHBURG      SUNNY     49  14  24 S8        30.52F
DANVILLE       SUNNY     53  15  22 CALM      30.52F
SOUTH BOSTON*  FAIR      52  13  20 S3        30.54F
MARTINSVILLE   SUNNY     54  15  21 E3        30.52F
ROANOKE        MOSUNNY   52  14  22 E9        30.50F
BLACKSBURG     SUNNY     52  19  26 SE6       30.47F
DUBLIN*        SUNNY     55  18  23 S7        30.44F
MARION*        SUNNY     58  21  24 SE6       30.42F
HILLSVILLE*    SUNNY     49  20  31 CALM      30.42F
RICHLANDS*     FAIR      58  29  32 CALM      30.37F
WISE*          SUNNY     61  25  25 SW3       30.37S
ABINGDON*      SUNNY     63  26  24 W7        30.37F
$$

MDZ021>025-VAZ099-100-232100-
SOUTHERN MARYLAND AND THE DELMARVA PENINSULA

CITY           SKY/WX    TMP DP  RH WIND       PRES   REMARKS
PATUXENT RIVER MOSUNNY   39  18  42 SE9       30.59F
BAY BRIDGE APT SUNNY     43  10  26 S8        30.58F
LEONARDTOWN    SUNNY     43  12  28 SE5       30.59F
DOVER          SUNNY     44  13  28 W8        30.56F
GEORGETOWN     SUNNY     44   7  21 CALM      30.58F
EASTON         SUNNY     45 -11   9 W3        30.62F
CAMBRIDGE      SUNNY     41  -2  16 N13       30.58F
SALISBURY      SUNNY     45   8  22 VRB5      30.57F
OCEAN CITY     SUNNY     36  18  48 VRB5      30.60F
WALLOPS ISLAND SUNNY     40  21  46 SE9       30.60F
ACCOMACK*      SUNNY     41  13  31 NW8       30.60S
$$

NCZ012>017-030>032-232100-
NORTH CENTRAL AND EASTERN NORTH CAROLINA

CITY           SKY/WX    TMP DP  RH WIND       PRES   REMARKS
ROANOKE RAPIDS FAIR      50  18  27 S5        30.56F
RALEIGH        MOSUNNY   55  16  21 VRB3      30.54F
ELIZABETH CITY SUNNY     46  24  42 NE9       30.60F
AHOSKIE*       NOT AVBL
EDENTON*       NOT AVBL
CURRITUCK*     SUNNY     42  23  48 NE10      30.61F
KILL DEVIL HLS NOT AVBL
MANTEO         SUNNY     41  24  49 NE14      30.60F
CAPE HATTERAS  SUNNY     47  28  47 NE10G21   30.58F
TARBORO*       NOT AVBL
GOLDSBORO      SUNNY     54  20  26 N5        30.53F
WASHINGTON     SUNNY     50  27  40 E5        30.57F
GREENVILLE     SUNNY     52  19  28 N3        30.55F
NEW BERN       SUNNY     52  23  32 VRB6      30.56F
WILMINGTON     SUNNY     52  31  44 E12       30.54F
$$

VAZ048-232100-
ELSEWHERE

CITY           SKY/WX    TMP DP  RH WIND       PRES   REMARKS
HARRISBURG PA  MOSUNNY   44   6  21 NW8       30.53F
BALTIMORE      MOSUNNY   46   5  18 W7        30.55F
ANNAPOLIS      SUNNY     40  18  41 SE12      30.58F
ANDREWS AFB    SUNNY     44   1  16 W3        30.55F
PHILADELPHIA   MOSUNNY   43   6  21 SW10      30.56F
HENDERSON NC   SUNNY     49  12  23 CALM      30.54S
GREENSBORO     MOSUNNY   53  15  22 CALM      30.49F
ROCKY MOUNT    SUNNY     52  14  22 CALM      30.56F
$$

VAZ100-232100-
MARINE

STATION/POSITION TIME  TEMP    WIND        PRES    WAVE   SWELL
                       AIR SEA DIR/SP/G            HT/PER HT/PER
                 (UTC) (F)     (DEG/KT/KT) (MB)    (FT/S) (FT/S)
CAPE MAY NJ      1948   37 43  300/  6/  8 1035.3F
LEWES DE         1948   36 43   30/  4/  7 1035.4F
OCEAN-CITY-INLET 1948   36 43  140/  5/  7 1036.5F
WACHAPREAGUE VA  1948   38 48  150/  5/  8 1036.0F
THOMAS POINT MD  2000   37 44  150/  9/ 11   N/A
GOOSES REEF MD   2000   37 45  130/  6/  8 1036.3    0
COVE POINT MD    1948   36     140/  5/  6 1036.3F
SOLOMONS ISLAND  1948   37 45   80/  9/ 10   N/A
BISHOPS HEAD MD  1948   36 46  240/  4/  5 1036.4F
PINEY POINT MD   1948          170/  8/  9   N/A
POTOMAC MD       2000   36 46   90/  6/  8 1035.4    0
CAMBRIDGE MD     1948   39 44  320/  7/ 11 1035.5F
LEWISETTA VA     1948   36 47  100/  9/ 11 1035.7F
RAPPAHANNOCK LGT 1948          350/  7/  8 1036.8F
STINGRAY PT      1950   36      80/  4/  8 1036.5F
YORK RVR RNG VA  1948   38     130/  5/  7 1035.7F
YORKTOWN VA      1948   39 48   80/  8/  9 1035.9F
JAMESTOWN VA     2000   42 51  130/  6/ 10   N/A     0
DOMINION TERM VA 1948   38     120/  8/ 10 1036.4F
KIPTOPEKE VA     1948      47  300/  5/  7   N/A
CHES BAY BRIDGE  1948   37 47  150/  2/  4 1036.6F
CAPE HENRY VA    1948   38      60/  3/  5   N/A
WILLOUBY STN VA  1948   36      70/  6/  7 1037.3F
S CRANEY ISL VA  1948   40      10/  5/  7 1036.3F
CAPE HENRY BUOY  1942      46                N/A     4/ 7
CAPE CHARLES BUO 1951      46                N/A     3/ 7
OFFSHORE WE BUOY 1951      45                N/A     5/ 8
64NM E OF VA BCH 1950   38 50  360/ 12/ 14 1035.9R   6/ 8   5/ 8
DUCK PIER NC     1948   37 48   20/ 12/ 14 1035.9F
44100 DUCK FRF   1935      47                N/A     5/ 7   2/11
44056 DUCK FRF   1930      47                N/A     5/ 7   2/11
OREGON INLET NC  1942   41 49   10/ 10/ 16 1036.0F
HATTERAS NC      1948   42 51   20/ 12/ 17 1035.1F
DIAMOND SHLS NC  1950   46 74   20/ 16/ 21 1034.7F   9/11   8/11
CAPE LOOKOUT NC  2000   45      30/ 15/ 18 1034.5F
$$




USA.gov is the U.S. government's official web portal to all federal, state and local government web resources and services.